Location: G�kdere
(37.0328°N, 30.9000°E)
Time: 01:22:25
(UTC+00:00)

SAR-Lupe-1 - Pass Details

Date: 03 March 2021
Orbit: 482 x 483 km, 98.2° (Epoch: 30 March)

Event Time Altitude Azimuth Distance (km) Brightness Sun altitude
Rises 16:52:40 0° 9° (N) 2,552 7.6 -12.8°
Reaches altitude 10° 16:54:44 10° 7° (N) 1,668 6.7 -13.2°
Maximum altitude 16:58:18 69° 285° (WNW) 521 4.4 -13.9°
Drops below altitude 10° 17:01:50 10° 201° (SSW) 1,655 7.0 -14.6°
Sets 17:03:53 0° 199° (SSW) 2,531 7.9 -15.0°
